TimeCDT,TemperatureF,Dew PointF,Humidity,Sea Level PressureIn,VisibilityMPH,Wind Direction,Wind SpeedMPH,Gust SpeedMPH,PrecipitationIn,Events,Conditions,WindDirDegrees,DateUTC
12:12 AM,37.4,32.0,81,30.17,10.0,Calm,Calm,-,N/A,,Clear,0,2012-05-12 05:12:00
12:32 AM,35.6,32.0,87,30.18,10.0,Calm,Calm,-,N/A,,Clear,0,2012-05-12 05:32:00
12:52 AM,35.6,32.0,87,30.19,10.0,Calm,Calm,-,N/A,,Clear,0,2012-05-12 05:52:00
1:13 AM,33.8,30.2,87,30.19,10.0,Calm,Calm,-,N/A,,Clear,0,2012-05-12 06:13:00
1:32 AM,33.8,30.2,87,30.19,10.0,Calm,Calm,-,N/A,,Clear,0,2012-05-12 06:32:00
1:53 AM,33.8,30.2,87,30.20,10.0,Calm,Calm,-,N/A,,Clear,0,2012-05-12 06:53:00
2:13 AM,33.8,30.2,87,30.20,10.0,Calm,Calm,-,N/A,,Clear,0,2012-05-12 07:13:00
2:32 AM,32.0,30.2,93,30.21,10.0,Calm,Calm,-,N/A,,Clear,0,2012-05-12 07:32:00
2:53 AM,32.0,30.2,93,30.21,10.0,Calm,Calm,-,N/A,,Clear,0,2012-05-12 07:53:00
3:13 AM,30.2,28.4,93,30.21,10.0,Calm,Calm,-,N/A,,Clear,0,2012-05-12 08:13:00
3:32 AM,30.2,28.4,93,30.22,10.0,Calm,Calm,-,N/A,,Clear,0,2012-05-12 08:32:00
3:53 AM,33.8,30.2,87,30.22,10.0,SSW,3.5,-,N/A,,Clear,210,2012-05-12 08:53:00
4:13 AM,33.8,30.2,87,30.23,10.0,Calm,Calm,-,N/A,,Clear,0,2012-05-12 09:13:00
4:32 AM,33.8,30.2,87,30.23,10.0,Calm,Calm,-,N/A,,Clear,0,2012-05-12 09:32:00
4:53 AM,33.8,28.4,81,30.23,10.0,Calm,Calm,-,N/A,,Clear,0,2012-05-12 09:53:00
5:13 AM,33.8,28.4,81,30.24,10.0,Calm,Calm,-,N/A,,Clear,0,2012-05-12 10:13:00
5:32 AM,33.8,28.4,81,30.25,10.0,Calm,Calm,-,N/A,,Clear,0,2012-05-12 10:32:00
5:53 AM,33.8,28.4,81,30.25,10.0,Calm,Calm,-,N/A,,Clear,0,2012-05-12 10:53:00
6:12 AM,33.8,28.4,81,30.26,10.0,Calm,Calm,-,N/A,,Clear,0,2012-05-12 11:12:00
6:32 AM,35.6,28.4,75,30.27,10.0,Calm,Calm,-,N/A,,Clear,0,2012-05-12 11:32:00
6:53 AM,35.6,30.2,81,30.27,10.0,SW,3.5,-,N/A,,Clear,230,2012-05-12 11:53:00
7:12 AM,39.2,30.2,70,30.28,10.0,SW,4.6,-,N/A,,Clear,230,2012-05-12 12:12:00
7:32 AM,42.8,30.2,61,30.28,10.0,SW,4.6,-,N/A,,Clear,230,2012-05-12 12:32:00
7:53 AM,46.4,30.2,53,30.28,10.0,SW,4.6,-,N/A,,Clear,230,2012-05-12 12:53:00
8:12 AM,48.2,30.2,50,30.28,10.0,SW,5.8,-,N/A,,Clear,230,2012-05-12 13:12:00
8:32 AM,51.8,28.4,41,30.28,10.0,SW,4.6,-,N/A,,Clear,230,2012-05-12 13:32:00
8:53 AM,53.6,26.6,35,30.29,10.0,WSW,8.1,-,N/A,,Clear,250,2012-05-12 13:53:00
9:13 AM,55.4,24.8,31,30.29,10.0,WSW,8.1,-,N/A,,Clear,240,2012-05-12 14:13:00
9:32 AM,57.2,24.8,29,30.28,10.0,WSW,8.1,-,N/A,,Clear,240,2012-05-12 14:32:00
9:53 AM,59.0,23.0,25,30.28,10.0,West,12.7,18.4,N/A,,Clear,270,2012-05-12 14:53:00
10:12 AM,60.8,21.2,22,30.28,10.0,West,15.0,20.7,N/A,,Clear,260,2012-05-12 15:12:00
10:32 AM,59.0,21.2,23,30.28,10.0,West,9.2,21.9,N/A,,Clear,280,2012-05-12 15:32:00
10:53 AM,60.8,17.6,19,30.28,10.0,West,12.7,20.7,N/A,,Clear,270,2012-05-12 15:53:00
11:13 AM,60.8,17.6,19,30.28,10.0,WNW,16.1,20.7,N/A,,Clear,290,2012-05-12 16:13:00
11:32 AM,60.8,21.2,22,30.27,10.0,WSW,12.7,18.4,N/A,,Clear,250,2012-05-12 16:32:00
11:53 AM,60.8,21.2,22,30.27,10.0,West,10.4,19.6,N/A,,Clear,270,2012-05-12 16:53:00
12:13 PM,62.6,21.2,20,30.26,10.0,West,11.5,20.7,N/A,,Clear,280,2012-05-12 17:13:00
12:32 PM,62.6,21.2,20,30.25,10.0,WSW,13.8,23.0,N/A,,Clear,250,2012-05-12 17:32:00
12:53 PM,62.6,21.2,20,30.25,10.0,West,11.5,16.1,N/A,,Clear,280,2012-05-12 17:53:00
1:12 PM,64.4,21.2,19,30.24,10.0,West,11.5,24.2,N/A,,Clear,270,2012-05-12 18:12:00
1:32 PM,64.4,21.2,19,30.24,10.0,West,10.4,25.3,N/A,,Clear,280,2012-05-12 18:32:00
1:53 PM,66.2,21.2,18,30.23,10.0,WNW,10.4,19.6,N/A,,Clear,290,2012-05-12 18:53:00
2:13 PM,66.2,19.4,17,30.23,10.0,WSW,13.8,24.2,N/A,,Clear,240,2012-05-12 19:13:00
2:32 PM,66.2,19.4,17,30.22,10.0,West,16.1,27.6,N/A,,Clear,280,2012-05-12 19:32:00
2:53 PM,66.2,19.4,17,30.21,10.0,West,16.1,26.5,N/A,,Clear,260,2012-05-12 19:53:00
3:12 PM,66.2,19.4,17,30.21,10.0,WSW,19.6,28.8,N/A,,Clear,250,2012-05-12 20:12:00
3:32 PM,66.2,19.4,17,30.21,10.0,West,17.3,25.3,N/A,,Clear,280,2012-05-12 20:32:00
3:53 PM,66.2,19.4,17,30.20,10.0,West,12.7,27.6,N/A,,Clear,270,2012-05-12 20:53:00
4:12 PM,66.2,17.6,15,30.19,10.0,West,10.4,24.2,N/A,,Clear,270,2012-05-12 21:12:00
4:32 PM,66.2,17.6,15,30.19,10.0,WNW,12.7,31.1,N/A,,Clear,290,2012-05-12 21:32:00
4:53 PM,66.2,17.6,15,30.19,10.0,West,12.7,21.9,N/A,,Clear,270,2012-05-12 21:53:00
5:12 PM,66.2,15.8,14,30.19,10.0,NW,15.0,24.2,N/A,,Clear,310,2012-05-12 22:12:00
5:33 PM,66.2,17.6,15,30.19,10.0,WNW,11.5,17.3,N/A,,Clear,290,2012-05-12 22:33:00
5:53 PM,66.2,17.6,15,30.18,10.0,West,16.1,25.3,N/A,,Clear,280,2012-05-12 22:53:00
6:12 PM,66.2,17.6,15,30.18,10.0,West,10.4,16.1,N/A,,Clear,280,2012-05-12 23:12:00
6:33 PM,66.2,17.6,15,30.18,10.0,West,13.8,23.0,N/A,,Clear,270,2012-05-12 23:33:00
6:53 PM,64.4,17.6,16,30.18,10.0,WNW,15.0,19.6,N/A,,Clear,290,2012-05-12 23:53:00
7:12 PM,64.4,19.4,18,30.18,10.0,West,9.2,-,N/A,,Clear,280,2012-05-13 00:12:00
7:33 PM,64.4,19.4,18,30.18,10.0,West,4.6,-,N/A,,Clear,280,2012-05-13 00:33:00
7:52 PM,62.6,19.4,19,30.18,10.0,West,5.8,9.2,N/A,,Clear,270,2012-05-13 00:52:00
8:12 PM,62.6,21.2,20,30.18,10.0,West,4.6,-,N/A,,Clear,270,2012-05-13 01:12:00
8:33 PM,60.8,21.2,22,30.18,10.0,WSW,3.5,-,N/A,,Clear,240,2012-05-13 01:33:00
8:52 PM,60.8,21.2,22,30.18,10.0,Calm,Calm,-,N/A,,Clear,0,2012-05-13 01:52:00
9:12 PM,55.4,23.0,29,30.18,10.0,SSW,3.5,-,N/A,,Clear,200,2012-05-13 02:12:00
9:33 PM,51.8,24.8,35,30.19,10.0,Calm,Calm,-,N/A,,Clear,0,2012-05-13 02:33:00
9:52 PM,53.6,23.0,30,30.19,10.0,SSW,3.5,-,N/A,,Clear,200,2012-05-13 02:52:00
10:12 PM,51.8,24.8,35,30.18,10.0,SSW,3.5,-,N/A,,Clear,200,2012-05-13 03:12:00
10:33 PM,51.8,24.8,35,30.19,10.0,SSW,4.6,-,N/A,,Clear,200,2012-05-13 03:33:00
10:52 PM,51.8,24.8,35,30.18,10.0,SSW,3.5,-,N/A,,Clear,200,2012-05-13 03:52:00
11:12 PM,46.4,26.6,46,30.18,10.0,SSW,5.8,-,N/A,,Clear,200,2012-05-13 04:12:00
11:33 PM,50.0,26.6,40,30.18,10.0,SSW,4.6,-,N/A,,Clear,200,2012-05-13 04:33:00
11:52 PM,44.6,28.4,53,30.18,10.0,SSW,3.5,-,N/A,,Clear,210,2012-05-13 04:52:00